Regional Weather Roundup
Issued by NWS Little Rock, AR

Home | Current Version | Previous Version | Graphics & Text | Print | Product List | Glossary On
Versions: 1 2 3 4 5 6 7 8 9 10 11 12 13 14 15 16 17 18 19 20 21 22 23 24 25 26 27 28 29 30 31 32 33 34 35 36 37 38 39 40 41 42 43 44 45 46 47 48 49 50
000
ASUS44 KLZK 181005
RWRLZK

WEATHER ROUNDUP FOR ARKANSAS
NATIONAL WEATHER SERVICE LITTLE ROCK AR
500 AM CDT THU SEP 18 2014

NOTE: "FAIR" INDICATES FEW OR NO CLOUDS BELOW 12,000 FEET WITH NO
SIGNIFICANT WEATHER AND/OR OBSTRUCTIONS TO VISIBILITY.

ARZ001-003-010-029-181100-
NORTHWEST ARKANSAS

CITY           SKY/WX    TMP DP  RH WIND       PRES   REMARKS
FAYETTEVILLE   CLOUDY    64  64 100 CALM      29.97R
FORT SMITH     MOCLDY    68  65  90 N3        29.88F
HARRISON       FOG       62  62 100 NW6       29.98R VSB 1/2
BENTONVILLE    CLOUDY    66  63  88 N8        30.00R THUNDER
ROGERS         TSTM      65  62  90 N8        30.00R
SILOAM SPGS    CLOUDY    66  59  77 N13       30.02R THUNDER
HIGHFILL       RAIN      65  63  93 N7        29.99S
$$

ARZ004-005-016-181100-
NORTH CENTRAL ARKANSAS

CITY           SKY/WX    TMP DP  RH WIND       PRES   REMARKS
BATESVILLE     CLOUDY    63  61  94 CALM      29.94S
FLIPPIN        CLOUDY    63  59  88 NE3       29.96R
MTN HOME       FOG       63  63 100 SE3       29.95S VSB 1
$$

ARZ040-041-181100-
WEST CENTRAL ARKANSAS

CITY           SKY/WX    TMP DP  RH WIND       PRES   REMARKS
MENA             N/A     72  70  94 CALM      29.91S
MOUNT IDA      CLOUDY    72  71  97 CALM      29.87R FOG
$$

ARZ009-017-025-026-028-181100-
NORTHEAST ARKANSAS

CITY           SKY/WX    TMP DP  RH WIND       PRES   REMARKS
CORNING        LGT RAIN  63  63 100 NE7       29.96R
JONESBORO      CLOUDY    63  62  97 NE3       29.93F
NEWPORT        CLOUDY    61  61 100 N3        29.95R FOG
WALNUT RIDGE   CLOUDY    64  61  88 N5        29.95R
BLYTHEVILLE    CLOUDY    66  64  93 N10       29.95S
$$

ARZ022-023-033-042-044-181100-
CENTRAL ARKANSAS

CITY           SKY/WX    TMP DP  RH WIND       PRES   REMARKS
LITTLE ROCK    CLOUDY    68  64  87 NE6       29.91R FOG
N LITTLE ROCK    N/A     66  66  97 E7        29.91R
JACKSONVILLE   CLOUDY    65  63  94 E6        29.90S
SEARCY         CLOUDY    63  62  96 N5        29.93S
HOT SPRINGS    CLOUDY    73  70  90 E6        29.89R
RUSSELLVILLE   CLOUDY    70  68  93 E5        29.90R
CLINTON        CLOUDY    66  66 100 CALM      29.93S FOG
$$

ARZ036-181100-
EAST ARKANSAS

CITY           SKY/WX    TMP DP  RH WIND       PRES   REMARKS
WEST MEMPHIS   CLOUDY    65  65 100 E5        29.92R
$$

ARZ050-053-066-070-073-181100-
SOUTHWEST ARKANSAS

CITY           SKY/WX    TMP DP  RH WIND       PRES   REMARKS
ARKADELPHIA    LGT RAIN  74  73  96 NE8       29.88R
CAMDEN         CLOUDY    72  68  88 CALM      29.88F
TEXARKANA      CLOUDY    74  72  93 S6        29.87F
EL DORADO      CLOUDY    71  70  96 CALM      29.89S
DE QUEEN       CLOUDY    71  68  90 NE10      29.85R
$$

ARZ056-057-069-181100-
SOUTHEAST ARKANSAS

CITY           SKY/WX    TMP DP  RH WIND       PRES   REMARKS
PINE BLUFF     CLOUDY    70  68  93 CALM      29.89R
STUTTGART      CLOUDY    68  64  88 N7        29.91R
MONTICELLO     MOCLDY    70  68  93 CALM      29.89R

$$




USA.gov is the U.S. government's official web portal to all federal, state and local government web resources and services.